Location: PSU-Greenbush Astrophysical Observatory
(37.5140°N, 94.9880°W)
Time: 22:23:40
(UTC-06:00)

Altair - Pass Details

Date: 24 January 2020
Orbit: 1502 x 1682 km, 47.2° (Epoch: 19 February)

Event Time Altitude Azimuth Distance (km) Brightness Sun altitude
Rises 06:00:09 0° 175° (S) 4,812 10.3 -17.7°
Reaches altitude 10° 06:05:01 10° 154° (SSE) 3,865 10.1 -16.8°
Maximum altitude 06:10:11 16° 122° (ESE) 3,469 10.4 -15.8°
Drops below altitude 10° 06:15:24 10° 90° (E) 3,927 10.9 -14.8°
Sets 06:20:21 0° 70° (ENE) 4,933 11.2 -13.8°
